TimeCST,TemperatureF,Dew PointF,Humidity,Sea Level PressureIn,VisibilityMPH,Wind Direction,Wind SpeedMPH,Gust SpeedMPH,PrecipitationIn,Events,Conditions,WindDirDegrees,DateUTC
12:15 AM,32.0,28.4,87,30.31,10.0,South,4.6,-,N/A,,Clear,170,2012-12-31 06:15:00
12:35 AM,32.0,28.4,87,30.31,10.0,South,5.8,-,N/A,,Clear,180,2012-12-31 06:35:00
12:55 AM,32.0,28.4,87,30.30,10.0,SSE,4.6,-,N/A,,Clear,160,2012-12-31 06:55:00
1:15 AM,32.0,28.4,87,30.30,10.0,South,4.6,-,N/A,,Clear,170,2012-12-31 07:15:00
1:35 AM,32.0,28.4,87,30.31,10.0,SSE,4.6,-,N/A,,Scattered Clouds,160,2012-12-31 07:35:00
1:55 AM,32.0,28.4,87,30.31,9.0,SSE,3.5,-,N/A,,Overcast,150,2012-12-31 07:55:00
2:15 AM,32.0,28.4,87,30.31,9.0,Calm,Calm,-,N/A,,Overcast,0,2012-12-31 08:15:00
2:35 AM,32.0,28.4,87,30.31,10.0,Calm,Calm,-,N/A,,Overcast,0,2012-12-31 08:35:00
2:55 AM,32.0,30.2,93,30.32,7.0,Calm,Calm,-,N/A,,Overcast,0,2012-12-31 08:55:00
3:15 AM,32.0,30.2,93,30.32,8.0,South,6.9,-,N/A,,Overcast,170,2012-12-31 09:15:00
3:35 AM,32.0,30.2,93,30.32,8.0,SW,5.8,-,N/A,,Overcast,220,2012-12-31 09:35:00
3:55 AM,33.8,28.4,81,30.32,8.0,SW,6.9,-,N/A,,Overcast,220,2012-12-31 09:55:00
4:15 AM,33.8,28.4,81,30.31,9.0,SW,6.9,-,N/A,,Overcast,230,2012-12-31 10:15:00
4:55 AM,33.8,30.2,87,30.29,5.0,South,9.2,-,N/A,Rain,Light Rain,180,2012-12-31 10:55:00
5:15 AM,33.8,30.2,87,30.28,7.0,South,5.8,-,N/A,Rain,Light Rain,180,2012-12-31 11:15:00
5:35 AM,33.8,30.2,87,30.27,10.0,SSE,5.8,-,N/A,,Overcast,160,2012-12-31 11:35:00
5:55 AM,33.8,30.2,87,30.26,8.0,SSE,6.9,-,N/A,,Overcast,160,2012-12-31 11:55:00
6:15 AM,33.8,30.2,87,30.26,7.0,South,9.2,-,N/A,Rain,Light Rain,170,2012-12-31 12:15:00
6:35 AM,33.8,30.2,87,30.25,8.0,South,8.1,-,N/A,,Overcast,170,2012-12-31 12:35:00
6:55 AM,33.8,30.2,87,30.25,8.0,South,9.2,-,N/A,Rain,Light Rain,170,2012-12-31 12:55:00
7:15 AM,33.8,30.2,87,30.25,8.0,South,5.8,-,N/A,,Mostly Cloudy,170,2012-12-31 13:15:00
7:35 AM,33.8,30.2,87,30.26,7.0,SSW,6.9,-,N/A,,Partly Cloudy,210,2012-12-31 13:35:00
7:55 AM,33.8,30.2,87,30.26,8.0,WSW,4.6,-,N/A,,Partly Cloudy,240,2012-12-31 13:55:00
8:35 AM,33.8,32.0,93,30.24,6.0,Calm,Calm,-,N/A,,Partly Cloudy,0,2012-12-31 14:35:00
8:55 AM,33.8,32.0,93,30.25,6.0,WNW,4.6,-,N/A,,Partly Cloudy,300,2012-12-31 14:55:00
9:15 AM,33.8,32.0,93,30.24,5.0,NW,3.5,-,N/A,,Mostly Cloudy,320,2012-12-31 15:15:00
9:35 AM,33.8,32.0,93,30.24,7.0,Calm,Calm,-,N/A,,Overcast,0,2012-12-31 15:35:00
9:55 AM,35.6,32.0,87,30.24,7.0,Calm,Calm,-,N/A,,Overcast,0,2012-12-31 15:55:00
10:15 AM,35.6,32.0,87,30.25,8.0,SSW,3.5,-,N/A,,Scattered Clouds,210,2012-12-31 16:15:00
10:35 AM,37.4,32.0,81,30.24,7.0,South,3.5,-,N/A,,Clear,190,2012-12-31 16:35:00
10:55 AM,37.4,32.0,81,30.24,9.0,Calm,Calm,-,N/A,,Partly Cloudy,0,2012-12-31 16:55:00
11:15 AM,37.4,32.0,81,30.22,8.0,Calm,Calm,-,N/A,,Partly Cloudy,0,2012-12-31 17:15:00
11:35 AM,37.4,32.0,81,30.20,8.0,Calm,Calm,-,N/A,Rain,Light Rain,0,2012-12-31 17:35:00
11:55 AM,37.4,32.0,81,30.19,8.0,Calm,Calm,-,N/A,,Clear,0,2012-12-31 17:55:00
12:15 PM,39.2,32.0,75,30.17,9.0,Calm,Calm,-,N/A,,Clear,0,2012-12-31 18:15:00
12:55 PM,39.2,32.0,75,30.16,6.0,WSW,8.1,-,N/A,Rain,Light Rain,250,2012-12-31 18:55:00
1:15 PM,37.4,32.0,81,30.18,2.5,West,8.1,-,N/A,Rain,Light Rain,280,2012-12-31 19:15:00
1:35 PM,37.4,32.0,81,30.15,2.5,West,3.5,-,0.02,Rain,Light Rain,270,2012-12-31 19:35:00
1:55 PM,37.4,32.0,81,30.14,2.5,West,3.5,-,0.04,Rain,Light Rain,280,2012-12-31 19:55:00
2:15 PM,35.6,33.8,93,30.13,2.5,Calm,Calm,-,0.01,Rain,Light Rain,0,2012-12-31 20:15:00
2:35 PM,35.6,33.8,93,30.13,3.0,Calm,Calm,-,0.01,Rain,Light Rain,0,2012-12-31 20:35:00
2:55 PM,35.6,33.8,93,30.12,1.2,NE,3.5,-,0.03,Rain,Light Rain,40,2012-12-31 20:55:00
3:15 PM,35.6,35.6,100,30.12,1.5,NE,5.8,-,N/A,Rain,Light Rain,40,2012-12-31 21:15:00
3:35 PM,35.6,35.6,100,30.10,2.0,NE,5.8,-,0.01,Rain,Light Rain,40,2012-12-31 21:35:00
3:55 PM,35.6,35.6,100,30.11,2.0,NNE,6.9,-,0.01,Rain,Light Rain,20,2012-12-31 21:55:00
4:15 PM,35.6,35.6,100,30.12,2.5,North,6.9,-,N/A,,Overcast,10,2012-12-31 22:15:00
4:35 PM,35.6,35.6,100,30.11,1.2,NNE,8.1,-,0.01,Rain,Light Rain,30,2012-12-31 22:35:00
4:55 PM,35.6,35.6,100,30.10,0.8,NNE,8.1,-,0.05,Rain,Rain,30,2012-12-31 22:55:00
5:15 PM,35.6,35.6,100,30.10,1.8,NE,5.8,-,N/A,Rain,Light Rain,50,2012-12-31 23:15:00
5:35 PM,35.6,35.6,100,30.09,1.8,NE,8.1,-,0.02,Rain,Light Rain,50,2012-12-31 23:35:00
5:55 PM,35.6,35.6,100,30.10,1.5,ENE,6.9,-,0.03,Rain,Light Rain,60,2012-12-31 23:55:00
6:15 PM,35.6,35.6,100,30.12,1.2,NNE,3.5,-,0.04,Rain,Light Rain,30,2013-01-01 00:15:00
6:35 PM,35.6,35.6,100,30.10,1.2,ESE,9.2,-,0.09,Rain,Rain,110,2013-01-01 00:35:00
7:15 PM,35.6,35.6,100,30.08,3.0,East,9.2,-,N/A,,Overcast,100,2013-01-01 01:15:00
7:35 PM,35.6,35.6,100,30.08,3.0,East,8.1,-,N/A,,Overcast,100,2013-01-01 01:35:00
7:55 PM,35.6,35.6,100,30.07,3.0,East,6.9,-,N/A,,Overcast,100,2013-01-01 01:55:00
8:15 PM,35.6,35.6,100,30.06,3.0,ENE,4.6,-,N/A,,Overcast,60,2013-01-01 02:15:00
8:35 PM,35.6,35.6,100,30.07,5.0,NE,4.6,-,N/A,,Overcast,50,2013-01-01 02:35:00
8:55 PM,35.6,35.6,100,30.06,4.0,ENE,4.6,-,N/A,,Overcast,60,2013-01-01 02:55:00
9:15 PM,35.6,35.6,100,30.06,4.0,ENE,4.6,-,N/A,,Overcast,60,2013-01-01 03:15:00
9:35 PM,35.6,35.6,100,30.07,2.0,NNE,4.6,-,N/A,,Overcast,20,2013-01-01 03:35:00
9:55 PM,35.6,35.6,100,30.07,1.2,NNE,4.6,-,N/A,,Overcast,20,2013-01-01 03:55:00
10:15 PM,35.6,35.6,100,30.07,1.0,NNE,5.8,-,N/A,,Overcast,30,2013-01-01 04:15:00
10:35 PM,35.6,35.6,100,30.07,1.0,NE,4.6,-,N/A,,Overcast,40,2013-01-01 04:35:00
10:55 PM,35.6,35.6,100,30.07,1.2,NNE,4.6,-,N/A,,Overcast,20,2013-01-01 04:55:00
11:15 PM,35.6,35.6,100,30.06,1.0,NNE,4.6,-,N/A,,Overcast,20,2013-01-01 05:15:00
11:35 PM,35.6,35.6,100,30.06,1.2,NNE,4.6,-,N/A,,Overcast,20,2013-01-01 05:35:00
11:55 PM,35.6,35.6,100,30.06,1.2,NNE,4.6,-,N/A,,Overcast,30,2013-01-01 05:55:00